INTELSAT 30 (IS-30) (40271 NORAD) Tracking and Keplerian Element Data

This shows tracking and keplerian element data for the satellite.

Feedback or suggestion? Click here.




ElementValue
Catalog40271
NameINTELSAT 30 (IS-30)
Epoch Orbit3369
Epoch Day11.41793515
Epoch Year2024
RAAN34.1611
Inclination0.0099
Eccentricity0.0001121
Argument of Perigee350.0696
Mean Anonmoly141.5778
Mean Motion1.00269622
Decay Rate-1.35E-06
L11 40271U 14062A 24011.41793515 -.00000135 00000+0 00000+0 0 9998
L22 40271 0.0099 34.1611 0001121 350.0696 141.5778 1.00269622 33696



Live tracking and technical data element details for INTELSAT 30 (IS-30) (NORAD 40271). INTELSAT 30 (IS-30) can be tracked NOW for your location showing map with azimuth and elevation plus other details from your city location.







IsCatalogInMostPopularTable: catalog: 40271, numindb: 746
Update: records affected: 1



GetName: 40271 INTELSAT 30 (IS-30)

Hit Count: updated at: Fri, 19 Apr 2024 11:51:19 GMT